Brainerd, MN

12:07 PM CDT on April 25, 2017 (GMT -0500)
Brainerd-Crow Wing County Regional

Weather History for KBRD - March, 2013

Change the Weather History Date:

Friday, March 8, 2013

  Actual Average Record
Temperature  
Mean Temperature 25 °F -  
Max Temperature 36 °F 34 °F 75 °F (1987)
Min Temperature 14 °F 9 °F -18 °F (1967)
Degree Days  
Heating Degree Days 40    
Moisture  
Dew Point 18 °F    
Average Humidity 71    
Maximum Humidity 86    
Minimum Humidity 57    
Precipitation  
Precipitation 0.00 in - - ()
Sea Level Pressure  
Sea Level Pressure 30.26 in    
Wind  
Wind Speed 5 mph (South)    
Max Wind Speed 12 mph    
Max Gust Speed -    
Visibility 6 miles    
Events      
Averages and records for this station are not official NWS values.
T = Trace of Precipitation, MM = Missing Value Source: NWS Daily Summary

Daily Weather History Graph

Daily Weather History Graph

Search for Another Location

Airport or City:

Trip Planner

Search our weather history database for the weather conditions in past years. The results will help you decide how hot, cold, wet, or windy it might be!

Date:

Astronomy

Mar. 08, 2013 Rise Set
Actual Time 6:42 AM CST 6:12 PM CST
Civil Twilight 6:12 AM CST 6:43 PM CST
Nautical Twilight 5:37 AM CST 7:17 PM CST
Astronomical Twilight 5:02 AM CST 7:53 PM CST
Moon 4:36 AM CST (3/8) 3:00 PM CST (3/8)
Length of Visible Light 12h 30m
Length of Day
11h 30m
Waning Crescent, 11% of the Moon is Illuminated
Mar 8
Waning Crescent
Mar 11
New
Mar 19
First Quarter
Mar 27
Full
Apr 2
Last Quarter

Hourly Weather History & Observations

Time (CST) Temp. Windchill Dew Point Humidity Pressure Visibility Wind Dir Wind Speed Gust Speed Precip Events Conditions
12:53 AM 14.0 °F 8.2 °F 7.0 °F 74% 30.32 in 10.0 mi ESE 3.5 mph - N/A   Clear
1:53 AM 19.0 °F 13.9 °F 10.0 °F 68% 30.32 in 10.0 mi South 3.5 mph - N/A   Scattered Clouds
2:09 AM 21.2 °F 13.6 °F 12.2 °F 68% 30.25 in 10.0 mi South 5.8 mph - N/A   Mostly Cloudy
2:53 AM 24.1 °F 13.7 °F 14.0 °F 65% 30.31 in 10.0 mi South 10.4 mph - N/A   Overcast
3:53 AM 23.0 °F 11.7 °F 15.1 °F 72% 30.30 in 8.0 mi South 11.5 mph - N/A   Overcast
4:53 AM 21.9 °F 11.0 °F 15.1 °F 75% 30.31 in 7.0 mi South 10.4 mph - N/A   Overcast
5:37 AM 21.2 °F 10.9 °F 15.8 °F 80% 30.24 in 6.0 mi South 9.2 mph - N/A   Haze
5:53 AM 21.0 °F 11.4 °F 15.1 °F 78% 30.31 in 6.0 mi South 8.1 mph - N/A   Haze
6:53 AM 21.0 °F 12.4 °F 15.1 °F 78% 30.31 in 4.0 mi South 6.9 mph - N/A   Haze
7:53 AM 21.0 °F 12.4 °F 15.1 °F 78% 30.32 in 4.0 mi South 6.9 mph - N/A   Haze
8:53 AM 21.0 °F 12.4 °F 16.0 °F 81% 30.31 in 3.0 mi South 6.9 mph - N/A   Haze
9:16 AM 21.2 °F 13.6 °F 17.6 °F 86% 30.25 in 2.5 mi SSW 5.8 mph - N/A   Haze
9:53 AM 23.0 °F 15.8 °F 18.0 °F 81% 30.32 in 2.5 mi SW 5.8 mph - N/A   Haze
10:53 AM 24.1 °F 17.0 °F 19.9 °F 84% 30.31 in 2.5 mi South 5.8 mph - N/A   Overcast
11:01 AM 24.8 °F 16.9 °F 19.4 °F 80% 30.24 in 3.0 mi South 6.9 mph - N/A   Haze
11:14 AM 26.6 °F 22.6 °F 19.4 °F 74% 30.24 in 3.0 mi South 3.5 mph - N/A   Haze
11:39 AM 26.6 °F 21.2 °F 19.4 °F 74% 30.23 in 4.0 mi ESE 4.6 mph - N/A   Haze
11:53 AM 28.0 °F 22.8 °F 19.9 °F 72% 30.30 in 4.0 mi Variable 4.6 mph - N/A   Haze
12:53 PM 32.0 °F 27.5 °F 21.0 °F 64% 30.28 in 5.0 mi Variable 4.6 mph - N/A   Haze
1:53 PM 34.0 °F 31.0 °F 21.9 °F 61% 30.26 in 5.0 mi Variable 3.5 mph - N/A   Haze
2:53 PM 36.0 °F - 21.9 °F 57% 30.24 in 5.0 mi Calm Calm - N/A   Haze
3:53 PM 36.0 °F 32.1 °F 23.0 °F 59% 30.25 in 5.0 mi SW 4.6 mph - N/A   Haze
4:53 PM 36.0 °F 31.1 °F 23.0 °F 59% 30.25 in 5.0 mi SSW 5.8 mph - N/A   Haze
5:53 PM 34.0 °F - 21.9 °F 61% 30.22 in 5.0 mi Calm Calm - N/A   Haze
6:53 PM 33.1 °F - 21.0 °F 61% 30.22 in 7.0 mi Calm Calm - N/A   Partly Cloudy
7:53 PM 32.0 °F 27.5 °F 21.0 °F 64% 30.20 in 6.0 mi SE 4.6 mph - N/A   Haze
8:53 PM 30.0 °F - 21.0 °F 69% 30.19 in 6.0 mi Calm Calm - N/A   Haze
9:53 PM 30.0 °F - 21.0 °F 69% 30.17 in 6.0 mi Calm Calm - N/A   Haze
10:53 PM 30.9 °F 27.5 °F 21.9 °F 69% 30.14 in 6.0 mi SE 3.5 mph - N/A   Haze
11:53 PM 30.0 °F 26.5 °F 23.0 °F 75% 30.11 in 6.0 mi SE 3.5 mph - N/A   Haze